Location: Caltech
(34.1382°N, 118.1253°W)
Time: 10:44:15
(UTC-07:00)

Oscar 10/S400 - Visible Passes

Search period start: 31 August 2015 00:00
Search period end: 10 September 2015 00:00
Orbit: 3881 x 35566 km, 26.0° (Epoch: 29 August)

Date Brightness Start Highest point End Pass type
(mag) Time Alt. Az. Time Alt. Az. Time Alt. Az.
05 Sep ? 05:58:05 10° SSW 15:32:28 70° S 15:53:59 10° E visible
06 Sep ? 04:52:47 10° SSW 14:45:39 68° S 15:09:47 10° E visible
07 Sep ? 03:53:17 10° SSW 13:57:40 65° SSE 14:25:32 10° E visible
08 Sep ? 03:12:31 14° SSW 13:07:55 61° SSE 13:41:07 10° E visible
09 Sep ? 02:31:44 16° S 02:47:02 16° S 12:56:29 10° E visible
